Time,TemperatureF,DewpointF,PressureIn,WindDirection,WindDirectionDegrees,WindSpeedMPH,WindSpeedGustMPH,Humidity,HourlyPrecipIn,Conditions,Clouds,dailyrainin,SoftwareType,DateUTC
2013-01-23 00:01:00,11.6,-4.3,30.15,WNW,288,5.0,5.0,48,0.00,,,0.00,Wunderground v.1.15,2013-01-23 05:01:00,
2013-01-23 00:04:00,11.6,-4.3,30.15,WNW,300,6.0,6.0,48,0.00,,,0.00,Wunderground v.1.15,2013-01-23 05:04:00,
2013-01-23 00:09:00,11.6,-4.3,30.15,WNW,292,6.0,11.0,48,0.00,,,0.00,Wunderground v.1.15,2013-01-23 05:09:00,
2013-01-23 00:15:00,11.6,-3.9,30.15,NW,308,5.0,10.0,49,0.00,,,0.00,Wunderground v.1.15,2013-01-23 05:15:00,
2013-01-23 00:20:00,11.6,-3.9,30.14,West,281,6.0,8.0,49,0.00,,,0.00,Wunderground v.1.15,2013-01-23 05:20:00,
2013-01-23 00:26:00,11.6,-3.9,30.15,West,277,8.0,13.0,49,0.00,,,0.00,Wunderground v.1.15,2013-01-23 05:26:00,
2013-01-23 00:31:00,11.5,-3.6,30.15,West,277,8.0,9.0,50,0.00,,,0.00,Wunderground v.1.15,2013-01-23 05:31:00,
2013-01-23 00:37:00,11.5,-3.2,30.15,NW,307,6.0,9.0,51,0.00,,,0.00,Wunderground v.1.15,2013-01-23 05:37:00,
2013-01-23 00:42:00,11.4,-3.3,30.15,NW,306,5.0,10.0,51,0.00,,,0.00,Wunderground v.1.15,2013-01-23 05:42:00,
2013-01-23 00:47:00,11.4,-2.8,30.16,WNW,282,6.0,10.0,52,0.00,,,0.00,Wunderground v.1.15,2013-01-23 05:47:00,
2013-01-23 00:53:00,11.3,-2.9,30.15,WNW,298,5.0,7.0,52,0.00,,,0.00,Wunderground v.1.15,2013-01-23 05:53:00,
2013-01-23 00:59:00,11.3,-2.5,30.15,WNW,292,4.0,7.0,53,0.00,,,0.00,Wunderground v.1.15,2013-01-23 05:59:00,
2013-01-23 01:05:00,11.2,-2.6,30.15,WNW,290,3.0,15.0,53,0.00,,,0.00,Wunderground v.1.15,2013-01-23 06:05:00,
2013-01-23 01:11:00,11.2,-2.6,30.15,West,276,5.0,5.0,53,0.00,,,0.00,Wunderground v.1.15,2013-01-23 06:11:00,
2013-01-23 01:16:00,11.2,-2.6,30.16,WNW,284,5.0,8.0,53,0.00,,,0.00,Wunderground v.1.15,2013-01-23 06:16:00,
2013-01-23 01:22:00,11.1,-2.3,30.16,WNW,289,4.0,8.0,54,0.00,,,0.00,Wunderground v.1.15,2013-01-23 06:22:00,
2013-01-23 01:29:00,11.1,-2.3,30.16,NW,304,4.0,8.0,54,0.00,,,0.00,Wunderground v.1.15,2013-01-23 06:29:00,
2013-01-23 01:34:00,11.1,-1.9,30.16,West,268,4.0,5.0,55,0.00,,,0.00,Wunderground v.1.15,2013-01-23 06:34:00,
2013-01-23 01:39:00,11.1,-1.9,30.17,WNW,294,3.0,7.0,55,0.00,,,0.00,Wunderground v.1.15,2013-01-23 06:39:00,
2013-01-23 01:45:00,11.0,-2.0,30.17,WNW,303,3.0,5.0,55,0.00,,,0.00,Wunderground v.1.15,2013-01-23 06:45:00,
2013-01-23 01:50:00,11.0,-2.0,30.17,WSW,251,4.0,6.0,55,0.00,,,0.00,Wunderground v.1.15,2013-01-23 06:50:00,
2013-01-23 01:56:00,11.0,-2.0,30.17,WNW,284,5.0,6.0,55,0.00,,,0.00,Wunderground v.1.15,2013-01-23 06:56:00,
2013-01-23 02:01:00,11.0,-2.0,30.17,WNW,302,4.0,4.0,55,0.00,,,0.00,Wunderground v.1.15,2013-01-23 07:01:00,
2013-01-23 02:06:00,10.9,-1.7,30.17,NW,315,3.0,8.0,56,0.00,,,0.00,Wunderground v.1.15,2013-01-23 07:06:00,
2013-01-23 02:12:00,10.9,-1.7,30.17,West,259,4.0,4.0,56,0.00,,,0.00,Wunderground v.1.15,2013-01-23 07:12:00,
2013-01-23 02:19:00,10.9,-1.7,30.18,WNW,282,3.0,6.0,56,0.00,,,0.00,Wunderground v.1.15,2013-01-23 07:19:00,
2013-01-23 02:24:00,10.8,-1.8,30.18,West,269,4.0,4.0,56,0.00,,,0.00,Wunderground v.1.15,2013-01-23 07:24:00,
2013-01-23 02:29:00,10.8,-1.8,30.18,West,260,4.0,9.0,56,0.00,,,0.00,Wunderground v.1.15,2013-01-23 07:29:00,
2013-01-23 02:34:00,10.8,-1.8,30.18,West,271,4.0,4.0,56,0.00,,,0.00,Wunderground v.1.15,2013-01-23 07:34:00,
2013-01-23 02:39:00,10.8,-1.5,30.18,WNW,295,4.0,10.0,57,0.00,,,0.00,Wunderground v.1.15,2013-01-23 07:39:00,
2013-01-23 02:45:00,10.7,-1.9,30.19,West,281,4.0,6.0,56,0.00,,,0.00,Wunderground v.1.15,2013-01-23 07:45:00,
2013-01-23 02:50:00,10.8,-1.8,30.19,NW,317,5.0,5.0,56,0.00,,,0.00,Wunderground v.1.15,2013-01-23 07:50:00,
2013-01-23 02:55:00,10.7,-1.6,30.19,West,268,5.0,7.0,57,0.00,,,0.00,Wunderground v.1.15,2013-01-23 07:55:00,
2013-01-23 03:00:00,10.7,-1.6,30.19,WSW,248,4.0,4.0,57,0.00,,,0.00,Wunderground v.1.15,2013-01-23 08:00:00,
2013-01-23 03:06:00,10.7,-1.6,30.19,WSW,241,3.0,5.0,57,0.00,,,0.00,Wunderground v.1.15,2013-01-23 08:06:00,
2013-01-23 03:12:00,10.7,-1.6,30.19,WNW,286,5.0,13.0,57,0.00,,,0.00,Wunderground v.1.15,2013-01-23 08:12:00,
2013-01-23 03:19:00,10.7,-1.6,30.18,WNW,288,6.0,13.0,57,0.00,,,0.00,Wunderground v.1.15,2013-01-23 08:19:00,
2013-01-23 03:24:00,10.6,-1.7,30.18,WNW,292,5.0,7.0,57,0.00,,,0.00,Wunderground v.1.15,2013-01-23 08:24:00,
2013-01-23 03:29:00,10.6,-1.3,30.18,WNW,301,4.0,7.0,58,0.00,,,0.00,Wunderground v.1.15,2013-01-23 08:29:00,
2013-01-23 03:34:00,10.6,-1.3,30.18,NW,308,4.0,6.0,58,0.00,,,0.00,Wunderground v.1.15,2013-01-23 08:34:00,
2013-01-23 03:39:00,10.5,-1.0,30.18,SW,227,4.0,6.0,59,0.00,,,0.00,Wunderground v.1.15,2013-01-23 08:39:00,
2013-01-23 03:45:00,10.5,-1.4,30.18,West,259,4.0,9.0,58,0.00,,,0.00,Wunderground v.1.15,2013-01-23 08:45:00,
2013-01-23 03:51:00,10.5,-1.4,30.18,WNW,294,4.0,11.0,58,0.00,,,0.00,Wunderground v.1.15,2013-01-23 08:51:00,
2013-01-23 03:56:00,10.4,-1.1,30.18,West,276,5.0,11.0,59,0.00,,,0.00,Wunderground v.1.15,2013-01-23 08:56:00,
2013-01-23 04:02:00,10.4,-1.1,30.18,West,263,4.0,5.0,59,0.00,,,0.00,Wunderground v.1.15,2013-01-23 09:02:00,
2013-01-23 04:09:00,10.3,-0.9,30.18,West,281,3.0,6.0,60,0.00,,,0.00,Wunderground v.1.15,2013-01-23 09:09:00,
2013-01-23 04:14:00,10.3,-1.2,30.18,WNW,288,3.0,7.0,59,0.00,,,0.00,Wunderground v.1.15,2013-01-23 09:14:00,
2013-01-23 04:19:00,10.3,-1.2,30.18,WSW,258,4.0,7.0,59,0.00,,,0.00,Wunderground v.1.15,2013-01-23 09:19:00,
2013-01-23 04:25:00,10.2,-0.9,30.18,WNW,299,3.0,5.0,60,0.00,,,0.00,Wunderground v.1.15,2013-01-23 09:25:00,
2013-01-23 04:31:00,10.2,-1.3,30.18,NW,317,3.0,3.0,59,0.00,,,0.00,Wunderground v.1.15,2013-01-23 09:31:00,
2013-01-23 04:36:00,10.2,-0.9,30.18,WNW,297,3.0,6.0,60,0.00,,,0.00,Wunderground v.1.15,2013-01-23 09:36:00,
2013-01-23 04:42:00,10.1,-1.4,30.18,WNW,282,4.0,5.0,59,0.00,,,0.00,Wunderground v.1.15,2013-01-23 09:42:00,
2013-01-23 04:48:00,10.1,-1.4,30.18,West,263,3.0,5.0,59,0.00,,,0.00,Wunderground v.1.15,2013-01-23 09:48:00,
2013-01-23 04:54:00,10.1,-1.0,30.18,WNW,284,4.0,9.0,60,0.00,,,0.00,Wunderground v.1.15,2013-01-23 09:54:00,
2013-01-23 04:59:00,10.1,-1.0,30.18,West,273,5.0,9.0,60,0.00,,,0.00,Wunderground v.1.15,2013-01-23 09:59:00,
2013-01-23 05:05:00,10.1,-1.0,30.18,West,279,3.0,4.0,60,0.00,,,0.00,Wunderground v.1.15,2013-01-23 10:05:00,
2013-01-23 05:11:00,10.0,-1.1,30.19,West,265,3.0,3.0,60,0.00,,,0.00,Wunderground v.1.15,2013-01-23 10:11:00,
2013-01-23 05:16:00,10.0,-1.1,30.19,NW,311,3.0,3.0,60,0.00,,,0.00,Wunderground v.1.15,2013-01-23 10:16:00,
2013-01-23 05:22:00,10.0,-1.1,30.19,WNW,301,3.0,3.0,60,0.00,,,0.00,Wunderground v.1.15,2013-01-23 10:22:00,
2013-01-23 05:27:00,9.9,-0.9,30.18,WNW,296,2.0,5.0,61,0.00,,,0.00,Wunderground v.1.15,2013-01-23 10:27:00,
2013-01-23 05:33:00,9.8,-1.3,30.18,West,274,3.0,3.0,60,0.00,,,0.00,Wunderground v.1.15,2013-01-23 10:33:00,
2013-01-23 05:39:00,9.8,-1.3,30.19,SW,236,3.0,7.0,60,0.00,,,0.00,Wunderground v.1.15,2013-01-23 10:39:00,
2013-01-23 05:45:00,9.8,-1.0,30.19,WNW,285,3.0,4.0,61,0.00,,,0.00,Wunderground v.1.15,2013-01-23 10:45:00,
2013-01-23 05:50:00,9.8,-1.3,30.19,NW,313,4.0,4.0,60,0.00,,,0.00,Wunderground v.1.15,2013-01-23 10:50:00,
2013-01-23 05:56:00,9.8,-1.0,30.19,WNW,287,4.0,10.0,61,0.00,,,0.00,Wunderground v.1.15,2013-01-23 10:56:00,
2013-01-23 06:02:00,9.8,-1.3,30.19,NW,308,4.0,4.0,60,0.00,,,0.00,Wunderground v.1.15,2013-01-23 11:02:00,
2013-01-23 06:07:00,9.8,-1.0,30.19,WNW,296,3.0,6.0,61,0.00,,,0.00,Wunderground v.1.15,2013-01-23 11:07:00,
2013-01-23 06:12:00,9.7,-1.4,30.19,WSW,255,3.0,4.0,60,0.00,,,0.00,Wunderground v.1.15,2013-01-23 11:12:00,
2013-01-23 06:19:00,9.7,-1.1,30.19,WNW,303,4.0,13.0,61,0.00,,,0.00,Wunderground v.1.15,2013-01-23 11:19:00,
2013-01-23 06:24:00,9.7,-1.4,30.20,WNW,300,4.0,6.0,60,0.00,,,0.00,Wunderground v.1.15,2013-01-23 11:24:00,
2013-01-23 06:29:00,9.7,-1.4,30.20,WNW,303,4.0,7.0,60,0.00,,,0.00,Wunderground v.1.15,2013-01-23 11:29:00,
2013-01-23 06:34:00,9.8,-1.3,30.20,WNW,296,5.0,6.0,60,0.00,,,0.00,Wunderground v.1.15,2013-01-23 11:34:00,
2013-01-23 06:40:00,9.8,-1.3,30.20,WNW,302,5.0,5.0,60,0.00,,,0.00,Wunderground v.1.15,2013-01-23 11:40:00,
2013-01-23 06:45:00,9.8,-1.3,30.20,WNW,288,4.0,6.0,60,0.00,,,0.00,Wunderground v.1.15,2013-01-23 11:45:00,
2013-01-23 06:52:00,9.7,-1.4,30.20,WNW,300,4.0,6.0,60,0.00,,,0.00,Wunderground v.1.15,2013-01-23 11:52:00,
2013-01-23 06:58:00,9.7,-1.1,30.20,WNW,292,5.0,8.0,61,0.00,,,0.00,Wunderground v.1.15,2013-01-23 11:58:00,
2013-01-23 07:04:00,9.7,-1.1,30.20,WNW,288,4.0,8.0,61,0.00,,,0.00,Wunderground v.1.15,2013-01-23 12:04:00,
2013-01-23 07:09:00,9.7,-1.1,30.20,WNW,299,5.0,11.0,61,0.00,,,0.00,Wunderground v.1.15,2013-01-23 12:09:00,
2013-01-23 07:15:00,9.7,-1.1,30.20,WNW,286,4.0,5.0,61,0.00,,,0.00,Wunderground v.1.15,2013-01-23 12:15:00,
2013-01-23 07:20:00,9.6,-1.2,30.20,WNW,297,3.0,6.0,61,0.00,,,0.00,Wunderground v.1.15,2013-01-23 12:20:00,
2013-01-23 07:26:00,9.6,-0.8,30.20,NW,312,2.0,6.0,62,0.00,,,0.00,Wunderground v.1.15,2013-01-23 12:26:00,
2013-01-23 07:31:00,9.6,-0.8,30.20,West,267,4.0,9.0,62,0.00,,,0.00,Wunderground v.1.15,2013-01-23 12:31:00,
2013-01-23 07:37:00,9.6,-0.8,30.20,WNW,287,4.0,9.0,62,0.00,,,0.00,Wunderground v.1.15,2013-01-23 12:37:00,
2013-01-23 07:42:00,9.6,-0.8,30.20,WNW,299,3.0,4.0,62,0.00,,,0.00,Wunderground v.1.15,2013-01-23 12:42:00,
2013-01-23 07:48:00,9.8,-1.0,30.20,WSW,248,4.0,11.0,61,0.00,,,0.00,Wunderground v.1.15,2013-01-23 12:48:00,
2013-01-23 07:53:00,9.8,-1.0,30.20,WSW,254,5.0,8.0,61,0.00,,,0.00,Wunderground v.1.15,2013-01-23 12:53:00,
2013-01-23 07:59:00,9.9,-0.9,30.21,WNW,295,5.0,8.0,61,0.00,,,0.00,Wunderground v.1.15,2013-01-23 12:59:00,
2013-01-23 08:04:00,10.0,-0.8,30.21,WNW,295,5.0,7.0,61,0.00,,,0.00,Wunderground v.1.15,2013-01-23 13:04:00,
2013-01-23 08:09:00,10.2,-0.6,30.21,West,263,4.0,7.0,61,0.00,,,0.00,Wunderground v.1.15,2013-01-23 13:09:00,
2013-01-23 08:15:00,10.3,-0.5,30.21,WSW,248,4.0,5.0,61,0.00,,,0.00,Wunderground v.1.15,2013-01-23 13:15:00,
2013-01-23 08:20:00,10.4,-0.4,30.21,West,279,4.0,6.0,61,0.00,,,0.00,Wunderground v.1.15,2013-01-23 13:20:00,
2013-01-23 08:26:00,10.6,-0.2,30.22,NW,307,4.0,9.0,61,0.00,,,0.00,Wunderground v.1.15,2013-01-23 13:26:00,
2013-01-23 08:32:00,10.8,-0.4,30.22,West,277,5.0,7.0,60,0.00,,,0.00,Wunderground v.1.15,2013-01-23 13:32:00,
2013-01-23 08:39:00,10.9,0.1,30.22,WNW,284,5.0,7.0,61,0.00,,,0.00,Wunderground v.1.15,2013-01-23 13:39:00,
2013-01-23 08:44:00,11.0,-0.2,30.22,West,275,6.0,6.0,60,0.00,,,0.00,Wunderground v.1.15,2013-01-23 13:44:00,
2013-01-23 08:49:00,11.1,-0.1,30.22,WNW,296,6.0,8.0,60,0.00,,,0.00,Wunderground v.1.15,2013-01-23 13:49:00,
2013-01-23 08:54:00,11.3,0.1,30.22,WNW,296,5.0,11.0,60,0.00,,,0.00,Wunderground v.1.15,2013-01-23 13:54:00,
2013-01-23 09:00:00,11.5,0.3,30.22,WSW,254,5.0,6.0,60,0.00,,,0.00,Wunderground v.1.15,2013-01-23 14:00:00,
2013-01-23 09:06:00,11.8,0.6,30.22,WNW,288,6.0,11.0,60,0.00,,,0.00,Wunderground v.1.15,2013-01-23 14:06:00,
2013-01-23 09:11:00,11.9,0.3,30.22,WNW,283,7.0,11.0,59,0.00,,,0.00,Wunderground v.1.15,2013-01-23 14:11:00,
2013-01-23 09:17:00,12.0,0.0,30.22,NW,322,7.0,11.0,58,0.00,,,0.00,Wunderground v.1.15,2013-01-23 14:17:00,
2013-01-23 09:22:00,12.3,-0.1,30.22,NNW,327,5.0,7.0,57,0.00,,,0.00,Wunderground v.1.15,2013-01-23 14:22:00,
2013-01-23 09:29:00,12.5,0.1,30.22,WNW,294,5.0,10.0,57,0.00,,,0.00,Wunderground v.1.15,2013-01-23 14:29:00,
2013-01-23 09:34:00,12.8,0.0,30.22,West,264,6.0,8.0,56,0.00,,,0.00,Wunderground v.1.15,2013-01-23 14:34:00,
2013-01-23 09:39:00,13.0,0.2,30.22,West,265,5.0,8.0,56,0.00,,,0.00,Wunderground v.1.15,2013-01-23 14:39:00,
2013-01-23 09:45:00,13.2,-0.4,30.22,West,277,5.0,15.0,54,0.00,,,0.00,Wunderground v.1.15,2013-01-23 14:45:00,
2013-01-23 09:50:00,13.3,-0.3,30.22,NW,315,7.0,7.0,54,0.00,,,0.00,Wunderground v.1.15,2013-01-23 14:50:00,
2013-01-23 09:56:00,13.3,-0.3,30.23,WNW,301,7.0,9.0,54,0.00,,,0.00,Wunderground v.1.15,2013-01-23 14:56:00,
2013-01-23 10:01:00,13.7,-0.3,30.22,WNW,287,6.0,7.0,53,0.00,,,0.00,Wunderground v.1.15,2013-01-23 15:01:00,
2013-01-23 10:07:00,13.7,-0.7,30.23,NW,313,8.0,12.0,52,0.00,,,0.00,Wunderground v.1.15,2013-01-23 15:07:00,
2013-01-23 10:13:00,13.7,-0.7,30.23,NW,305,7.0,9.0,52,0.00,,,0.00,Wunderground v.1.15,2013-01-23 15:13:00,
2013-01-23 10:19:00,13.8,-0.6,30.22,WSW,244,7.0,12.0,52,0.00,,,0.00,Wunderground v.1.15,2013-01-23 15:19:00,
2013-01-23 10:24:00,13.9,-0.9,30.22,West,281,9.0,12.0,51,0.00,,,0.00,Wunderground v.1.15,2013-01-23 15:24:00,
2013-01-23 10:29:00,14.0,-0.8,30.23,WSW,253,9.0,12.0,51,0.00,,,0.00,Wunderground v.1.15,2013-01-23 15:29:00,
2013-01-23 10:35:00,14.1,-0.7,30.22,West,271,7.0,17.0,51,0.00,,,0.00,Wunderground v.1.15,2013-01-23 15:35:00,
2013-01-23 10:41:00,14.2,-0.2,30.22,West,281,6.0,14.0,52,0.00,,,0.00,Wunderground v.1.15,2013-01-23 15:41:00,
2013-01-23 10:46:00,14.5,-0.8,30.22,WNW,302,6.0,14.0,50,0.00,,,0.00,Wunderground v.1.15,2013-01-23 15:46:00,
2013-01-23 10:52:00,14.8,-0.5,30.21,West,271,8.0,13.0,50,0.00,,,0.00,Wunderground v.1.15,2013-01-23 15:52:00,
2013-01-23 10:57:00,14.9,-0.8,30.22,WNW,284,8.0,14.0,49,0.00,,,0.00,Wunderground v.1.15,2013-01-23 15:57:00,
2013-01-23 11:03:00,15.2,-1.0,30.21,SW,229,9.0,9.0,48,0.00,,,0.00,Wunderground v.1.15,2013-01-23 16:03:00,
2013-01-23 11:09:00,15.4,-0.4,30.21,WNW,292,8.0,12.0,49,0.00,,,0.00,Wunderground v.1.15,2013-01-23 16:09:00,
2013-01-23 11:14:00,15.3,-0.5,30.20,West,279,8.0,12.0,49,0.00,,,0.00,Wunderground v.1.15,2013-01-23 16:14:00,
2013-01-23 11:19:00,15.5,-0.7,30.20,West,280,8.0,15.0,48,0.00,,,0.00,Wunderground v.1.15,2013-01-23 16:19:00,
2013-01-23 11:25:00,15.9,0.1,30.20,WSW,245,7.0,12.0,49,0.00,,,0.00,Wunderground v.1.15,2013-01-23 16:25:00,
2013-01-23 11:30:00,16.3,-0.4,30.19,West,273,7.0,7.0,47,0.00,,,0.00,Wunderground v.1.15,2013-01-23 16:30:00,
2013-01-23 11:36:00,16.8,-0.4,30.19,WNW,302,6.0,7.0,46,0.00,,,0.00,Wunderground v.1.15,2013-01-23 16:36:00,
2013-01-23 11:41:00,16.6,-1.1,30.19,WNW,295,7.0,15.0,45,0.00,,,0.00,Wunderground v.1.15,2013-01-23 16:41:00,
2013-01-23 11:47:00,16.1,-1.1,30.19,WSW,248,9.0,15.0,46,0.00,,,0.00,Wunderground v.1.15,2013-01-23 16:47:00,
2013-01-23 11:54:00,16.5,-1.2,30.18,SW,233,9.0,9.0,45,0.00,,,0.00,Wunderground v.1.15,2013-01-23 16:54:00,
2013-01-23 11:59:00,16.6,-1.1,30.18,NW,305,8.0,19.0,45,0.00,,,0.00,Wunderground v.1.15,2013-01-23 16:59:00,
2013-01-23 12:05:00,16.6,-1.6,30.17,WNW,297,9.0,14.0,44,0.00,,,0.00,Wunderground v.1.15,2013-01-23 17:05:00,
2013-01-23 12:10:00,16.4,-1.7,30.17,North,11,9.0,9.0,44,0.00,,,0.00,Wunderground v.1.15,2013-01-23 17:10:00,
2013-01-23 12:16:00,16.6,-1.6,30.17,WNW,303,7.0,11.0,44,0.00,,,0.00,Wunderground v.1.15,2013-01-23 17:16:00,
2013-01-23 12:22:00,16.7,-1.0,30.17,NW,322,8.0,11.0,45,0.00,,,0.00,Wunderground v.1.15,2013-01-23 17:22:00,
2013-01-23 12:27:00,17.1,-0.2,30.17,WNW,290,8.0,11.0,46,0.00,,,0.00,Wunderground v.1.15,2013-01-23 17:27:00,
2013-01-23 12:34:00,17.7,-0.1,30.16,WNW,300,7.0,12.0,45,0.00,,,0.00,Wunderground v.1.15,2013-01-23 17:34:00,
2013-01-23 12:39:00,17.7,-0.1,30.16,NW,311,7.0,12.0,45,0.00,,,0.00,Wunderground v.1.15,2013-01-23 17:39:00,
2013-01-23 12:44:00,17.7,-0.6,30.15,WSW,241,7.0,15.0,44,0.00,,,0.00,Wunderground v.1.15,2013-01-23 17:44:00,
2013-01-23 12:50:00,17.6,-0.6,30.16,NNW,333,8.0,8.0,44,0.00,,,0.00,Wunderground v.1.15,2013-01-23 17:50:00,
2013-01-23 12:55:00,17.9,0.1,30.15,WNW,288,7.0,9.0,45,0.00,,,0.00,Wunderground v.1.15,2013-01-23 17:55:00,
2013-01-23 13:00:00,18.1,-0.2,30.16,West,261,6.0,6.0,44,0.00,,,0.00,Wunderground v.1.15,2013-01-23 18:00:00,
2013-01-23 13:06:00,18.4,0.1,30.15,WNW,288,6.0,11.0,44,0.00,,,0.00,Wunderground v.1.15,2013-01-23 18:06:00,
2013-01-23 13:12:00,18.3,0.0,30.15,West,277,8.0,11.0,44,0.00,,,0.00,Wunderground v.1.15,2013-01-23 18:12:00,
2013-01-23 13:19:00,17.9,-0.4,30.15,WNW,293,8.0,11.0,44,0.00,,,0.00,Wunderground v.1.15,2013-01-23 18:19:00,
2013-01-23 13:24:00,18.3,0.5,30.15,WNW,298,6.0,10.0,45,0.00,,,0.00,Wunderground v.1.15,2013-01-23 18:24:00,
2013-01-23 13:30:00,18.6,0.7,30.15,WNW,287,7.0,14.0,45,0.00,,,0.00,Wunderground v.1.15,2013-01-23 18:30:00,
2013-01-23 13:35:00,18.5,0.2,30.15,WSW,255,8.0,14.0,44,0.00,,,0.00,Wunderground v.1.15,2013-01-23 18:35:00,
2013-01-23 13:41:00,18.8,0.5,30.14,WSW,250,7.0,7.0,44,0.00,,,0.00,Wunderground v.1.15,2013-01-23 18:41:00,
2013-01-23 13:46:00,18.5,0.2,30.14,WSW,239,7.0,16.0,44,0.00,,,0.00,Wunderground v.1.15,2013-01-23 18:46:00,
2013-01-23 13:52:00,18.1,0.3,30.14,WSW,237,8.0,12.0,45,0.00,,,0.00,Wunderground v.1.15,2013-01-23 18:52:00,
2013-01-23 13:59:00,18.5,0.7,30.14,West,267,5.0,12.0,45,0.00,,,0.00,Wunderground v.1.15,2013-01-23 18:59:00,
2013-01-23 14:04:00,19.0,-0.4,30.14,NW,323,6.0,8.0,42,0.00,,,0.00,Wunderground v.1.15,2013-01-23 19:04:00,
2013-01-23 14:09:00,18.8,-0.5,30.14,WSW,255,6.0,15.0,42,0.00,,,0.00,Wunderground v.1.15,2013-01-23 19:09:00,
2013-01-23 14:15:00,18.5,-0.8,30.14,WNW,292,8.0,9.0,42,0.00,,,0.00,Wunderground v.1.15,2013-01-23 19:15:00,
2013-01-23 14:20:00,18.3,-1.0,30.14,WNW,288,7.0,12.0,42,0.00,,,0.00,Wunderground v.1.15,2013-01-23 19:20:00,
2013-01-23 14:26:00,17.9,-1.4,30.14,West,271,7.0,12.0,42,0.00,,,0.00,Wunderground v.1.15,2013-01-23 19:26:00,
2013-01-23 14:32:00,17.9,-0.4,30.14,WNW,300,5.0,7.0,44,0.00,,,0.00,Wunderground v.1.15,2013-01-23 19:32:00,
2013-01-23 14:37:00,17.9,-1.4,30.15,West,273,6.0,15.0,42,0.00,,,0.00,Wunderground v.1.15,2013-01-23 19:37:00,
2013-01-23 14:44:00,17.7,-1.5,30.15,WNW,284,6.0,7.0,42,0.00,,,0.00,Wunderground v.1.15,2013-01-23 19:44:00,
2013-01-23 14:49:00,18.0,-0.8,30.15,West,278,4.0,7.0,43,0.00,,,0.00,Wunderground v.1.15,2013-01-23 19:49:00,
2013-01-23 14:55:00,18.0,-0.8,30.14,WNW,303,4.0,8.0,43,0.00,,,0.00,Wunderground v.1.15,2013-01-23 19:55:00,
2013-01-23 15:00:00,17.6,-1.6,30.14,West,269,6.0,6.0,42,0.00,,,0.00,Wunderground v.1.15,2013-01-23 20:00:00,
2013-01-23 15:06:00,17.3,-1.9,30.14,West,273,7.0,11.0,42,0.00,,,0.00,Wunderground v.1.15,2013-01-23 20:06:00,
2013-01-23 15:12:00,17.1,-1.6,30.15,WSW,257,7.0,8.0,43,0.00,,,0.00,Wunderground v.1.15,2013-01-23 20:12:00,
2013-01-23 15:18:00,17.0,-1.7,30.15,NNW,338,6.0,10.0,43,0.00,,,0.00,Wunderground v.1.15,2013-01-23 20:18:00,
2013-01-23 15:24:00,17.1,-1.6,30.15,West,263,5.0,8.0,43,0.00,,,0.00,Wunderground v.1.15,2013-01-23 20:24:00,
2013-01-23 15:29:00,17.2,-2.0,30.15,NW,315,6.0,11.0,42,0.00,,,0.00,Wunderground v.1.15,2013-01-23 20:29:00,
2013-01-23 15:35:00,17.4,-1.8,30.15,WNW,296,6.0,15.0,42,0.00,,,0.00,Wunderground v.1.15,2013-01-23 20:35:00,
2013-01-23 15:41:00,17.4,-1.3,30.15,WNW,285,5.0,8.0,43,0.00,,,0.00,Wunderground v.1.15,2013-01-23 20:41:00,
2013-01-23 15:46:00,17.4,-0.8,30.15,WNW,300,5.0,8.0,44,0.00,,,0.00,Wunderground v.1.15,2013-01-23 20:46:00,
2013-01-23 15:52:00,17.4,-1.3,30.15,WNW,298,5.0,7.0,43,0.00,,,0.00,Wunderground v.1.15,2013-01-23 20:52:00,
2013-01-23 15:57:00,17.4,-1.3,30.15,WNW,285,5.0,7.0,43,0.00,,,0.00,Wunderground v.1.15,2013-01-23 20:57:00,
2013-01-23 16:04:00,17.4,-1.3,30.15,WNW,286,5.0,8.0,43,0.00,,,0.00,Wunderground v.1.15,2013-01-23 21:04:00,
2013-01-23 16:09:00,17.3,-0.9,30.15,SE,138,5.0,8.0,44,0.00,,,0.00,Wunderground v.1.15,2013-01-23 21:09:00,
2013-01-23 16:14:00,17.2,-0.5,30.15,West,276,4.0,8.0,45,0.00,,,0.00,Wunderground v.1.15,2013-01-23 21:14:00,
2013-01-23 16:20:00,17.2,-1.0,30.15,West,278,4.0,4.0,44,0.00,,,0.00,Wunderground v.1.15,2013-01-23 21:20:00,
2013-01-23 16:26:00,17.0,-0.7,30.15,WNW,302,4.0,5.0,45,0.00,,,0.00,Wunderground v.1.15,2013-01-23 21:26:00,
2013-01-23 16:32:00,16.7,-1.5,30.15,West,276,4.0,6.0,44,0.00,,,0.00,Wunderground v.1.15,2013-01-23 21:32:00,
2013-01-23 16:38:00,16.6,-1.6,30.15,WNW,303,4.0,6.0,44,0.00,,,0.00,Wunderground v.1.15,2013-01-23 21:38:00,
2013-01-23 16:44:00,16.5,-1.2,30.15,NNW,333,3.0,5.0,45,0.00,,,0.00,Wunderground v.1.15,2013-01-23 21:44:00,
2013-01-23 16:49:00,16.3,-0.9,30.16,WNW,302,2.0,5.0,46,0.00,,,0.00,Wunderground v.1.15,2013-01-23 21:49:00,
2013-01-23 16:54:00,16.3,-0.9,30.15,WNW,296,3.0,6.0,46,0.00,,,0.00,Wunderground v.1.15,2013-01-23 21:54:00,
2013-01-23 17:00:00,16.1,-1.5,30.15,West,280,4.0,4.0,45,0.00,,,0.00,Wunderground v.1.15,2013-01-23 22:00:00,
2013-01-23 17:06:00,16.0,-1.6,30.15,NNW,327,4.0,9.0,45,0.00,,,0.00,Wunderground v.1.15,2013-01-23 22:06:00,
2013-01-23 17:12:00,15.8,-1.4,30.16,NW,312,4.0,8.0,46,0.00,,,0.00,Wunderground v.1.15,2013-01-23 22:12:00,
2013-01-23 17:17:00,15.7,-1.0,30.16,WNW,295,5.0,8.0,47,0.00,,,0.00,Wunderground v.1.15,2013-01-23 22:17:00,
2013-01-23 17:24:00,15.6,-0.2,30.16,West,278,5.0,9.0,49,0.00,,,0.00,Wunderground v.1.15,2013-01-23 22:24:00,
2013-01-23 17:29:00,15.4,-0.4,30.16,WNW,288,4.0,9.0,49,0.00,,,0.00,Wunderground v.1.15,2013-01-23 22:29:00,
2013-01-23 17:34:00,15.3,0.0,30.16,WNW,300,3.0,4.0,50,0.00,,,0.00,Wunderground v.1.15,2013-01-23 22:34:00,
2013-01-23 17:39:00,15.3,-0.5,30.16,West,268,3.0,5.0,49,0.00,,,0.00,Wunderground v.1.15,2013-01-23 22:39:00,
2013-01-23 17:44:00,15.2,-1.0,30.16,West,263,4.0,6.0,48,0.00,,,0.00,Wunderground v.1.15,2013-01-23 22:44:00,
2013-01-23 17:50:00,15.2,-1.0,30.16,WNW,288,5.0,5.0,48,0.00,,,0.00,Wunderground v.1.15,2013-01-23 22:50:00,
2013-01-23 17:56:00,15.2,-1.0,30.17,WNW,295,5.0,10.0,48,0.00,,,0.00,Wunderground v.1.15,2013-01-23 22:56:00,
2013-01-23 18:01:00,15.3,-1.4,30.17,WNW,292,6.0,7.0,47,0.00,,,0.00,Wunderground v.1.15,2013-01-23 23:01:00,
2013-01-23 18:07:00,15.2,-1.5,30.17,WNW,286,5.0,7.0,47,0.00,,,0.00,Wunderground v.1.15,2013-01-23 23:07:00,
2013-01-23 18:12:00,15.2,-1.5,30.17,WSW,249,4.0,5.0,47,0.00,,,0.00,Wunderground v.1.15,2013-01-23 23:12:00,
2013-01-23 18:19:00,15.2,-1.0,30.17,West,271,5.0,6.0,48,0.00,,,0.00,Wunderground v.1.15,2013-01-23 23:19:00,
2013-01-23 18:24:00,15.2,-1.0,30.17,WSW,240,5.0,6.0,48,0.00,,,0.00,Wunderground v.1.15,2013-01-23 23:24:00,
2013-01-23 18:30:00,15.1,-0.7,30.17,WNW,303,4.0,4.0,49,0.00,,,0.00,Wunderground v.1.15,2013-01-23 23:30:00,
2013-01-23 18:35:00,15.1,-0.7,30.17,WNW,292,4.0,6.0,49,0.00,,,0.00,Wunderground v.1.15,2013-01-23 23:35:00,
2013-01-23 18:41:00,15.0,-0.3,30.17,West,280,3.0,4.0,50,0.00,,,0.00,Wunderground v.1.15,2013-01-23 23:41:00,
2013-01-23 18:46:00,14.9,-0.4,30.17,WNW,287,3.0,5.0,50,0.00,,,0.00,Wunderground v.1.15,2013-01-23 23:46:00,
2013-01-23 18:52:00,14.8,-0.1,30.18,West,278,3.0,4.0,51,0.00,,,0.00,Wunderground v.1.15,2013-01-23 23:52:00,
2013-01-23 18:57:00,14.7,-0.2,30.18,West,271,3.0,4.0,51,0.00,,,0.00,Wunderground v.1.15,2013-01-23 23:57:00,
2013-01-23 19:03:00,14.6,-0.3,30.18,WNW,283,3.0,5.0,51,0.00,,,0.00,Wunderground v.1.15,2013-01-24 00:03:00,
2013-01-23 19:09:00,14.6,-0.3,30.17,WNW,300,3.0,5.0,51,0.00,,,0.00,Wunderground v.1.15,2013-01-24 00:09:00,
2013-01-23 19:14:00,14.5,-0.4,30.18,WNW,298,3.0,9.0,51,0.00,,,0.00,Wunderground v.1.15,2013-01-24 00:14:00,
2013-01-23 19:19:00,14.5,-0.8,30.17,West,275,4.0,9.0,50,0.00,,,0.00,Wunderground v.1.15,2013-01-24 00:19:00,
2013-01-23 19:25:00,14.5,-0.4,30.17,WNW,288,4.0,6.0,51,0.00,,,0.00,Wunderground v.1.15,2013-01-24 00:25:00,
2013-01-23 19:31:00,14.4,-0.5,30.17,WNW,284,3.0,5.0,51,0.00,,,0.00,Wunderground v.1.15,2013-01-24 00:31:00,
2013-01-23 19:37:00,14.4,0.0,30.17,West,279,3.0,5.0,52,0.00,,,0.00,Wunderground v.1.15,2013-01-24 00:37:00,
2013-01-23 19:43:00,14.2,-0.2,30.17,WNW,294,2.0,3.0,52,0.00,,,0.00,Wunderground v.1.15,2013-01-24 00:43:00,
2013-01-23 19:48:00,14.1,-0.3,30.17,WNW,298,2.0,4.0,52,0.00,,,0.00,Wunderground v.1.15,2013-01-24 00:48:00,
2013-01-23 19:55:00,14.0,-0.4,30.17,WNW,288,1.0,3.0,52,0.00,,,0.00,Wunderground v.1.15,2013-01-24 00:55:00,
2013-01-23 20:00:00,13.9,-0.1,30.17,WNW,290,1.0,1.0,53,0.00,,,0.00,Wunderground v.1.15,2013-01-24 01:00:00,
2013-01-23 20:06:00,13.8,0.2,30.17,WNW,290,1.0,2.0,54,0.00,,,0.00,Wunderground v.1.15,2013-01-24 01:06:00,
2013-01-23 20:12:00,13.6,0.0,30.17,WNW,290,1.0,1.0,54,0.00,,,0.00,Wunderground v.1.15,2013-01-24 01:12:00,
2013-01-23 20:19:00,13.4,0.2,30.17,WNW,290,1.0,2.0,55,0.00,,,0.00,Wunderground v.1.15,2013-01-24 01:19:00,
2013-01-23 20:24:00,13.3,0.5,30.17,WNW,290,1.0,2.0,56,0.00,,,0.00,Wunderground v.1.15,2013-01-24 01:24:00,
2013-01-23 20:29:00,13.1,0.3,30.17,WNW,290,1.0,2.0,56,0.00,,,0.00,Wunderground v.1.15,2013-01-24 01:29:00,
2013-01-23 20:35:00,12.9,0.9,30.17,WNW,290,1.0,1.0,58,0.00,,,0.00,Wunderground v.1.15,2013-01-24 01:35:00,
2013-01-23 20:41:00,12.8,0.8,30.17,WNW,290,1.0,1.0,58,0.00,,,0.00,Wunderground v.1.15,2013-01-24 01:41:00,
2013-01-23 20:46:00,12.5,0.9,30.17,WNW,290,0.0,2.0,59,0.00,,,0.00,Wunderground v.1.15,2013-01-24 01:46:00,
2013-01-23 20:52:00,12.4,0.8,30.17,WNW,290,1.0,1.0,59,0.00,,,0.00,Wunderground v.1.15,2013-01-24 01:52:00,
2013-01-23 20:58:00,12.2,0.9,30.17,WNW,290,0.0,1.0,60,0.00,,,0.00,Wunderground v.1.15,2013-01-24 01:58:00,
2013-01-23 21:04:00,12.0,1.1,30.17,WNW,290,0.0,0.0,61,0.00,,,0.00,Wunderground v.1.15,2013-01-24 02:04:00,
2013-01-23 21:09:00,11.7,1.2,30.16,WNW,290,0.0,1.0,62,0.00,,,0.00,Wunderground v.1.15,2013-01-24 02:09:00,
2013-01-23 21:15:00,11.5,1.3,30.17,WNW,290,0.0,0.0,63,0.00,,,0.00,Wunderground v.1.15,2013-01-24 02:15:00,
2013-01-23 21:20:00,11.2,1.4,30.17,WNW,290,0.0,0.0,64,0.00,,,0.00,Wunderground v.1.15,2013-01-24 02:20:00,
2013-01-23 21:25:00,11.0,1.5,30.17,WNW,290,0.0,0.0,65,0.00,,,0.00,Wunderground v.1.15,2013-01-24 02:25:00,
2013-01-23 21:31:00,10.7,1.2,30.17,WNW,290,0.0,2.0,65,0.00,,,0.00,Wunderground v.1.15,2013-01-24 02:31:00,
2013-01-23 21:37:00,10.5,1.4,30.17,WNW,290,0.0,2.0,66,0.00,,,0.00,Wunderground v.1.15,2013-01-24 02:37:00,
2013-01-23 21:44:00,10.3,1.5,30.17,WNW,290,0.0,1.0,67,0.00,,,0.00,Wunderground v.1.15,2013-01-24 02:44:00,
2013-01-23 21:49:00,10.2,1.7,30.17,WNW,290,1.0,1.0,68,0.00,,,0.00,Wunderground v.1.15,2013-01-24 02:49:00,
2013-01-23 21:55:00,10.0,1.9,30.17,WNW,290,0.0,1.0,69,0.00,,,0.00,Wunderground v.1.15,2013-01-24 02:55:00,
2013-01-23 22:00:00,9.9,2.1,30.17,WNW,290,0.0,0.0,70,0.00,,,0.00,Wunderground v.1.15,2013-01-24 03:00:00,
2013-01-23 22:06:00,9.8,2.3,30.17,WNW,290,0.0,0.0,71,0.00,,,0.00,Wunderground v.1.15,2013-01-24 03:06:00,
2013-01-23 22:12:00,9.6,2.4,30.17,WNW,290,0.0,0.0,72,0.00,,,0.00,Wunderground v.1.15,2013-01-24 03:12:00,
2013-01-23 22:19:00,9.5,2.6,30.17,WNW,290,0.0,1.0,73,0.00,,,0.00,Wunderground v.1.15,2013-01-24 03:19:00,
2013-01-23 22:24:00,9.4,2.8,30.17,WNW,290,0.0,0.0,74,0.00,,,0.00,Wunderground v.1.15,2013-01-24 03:24:00,
2013-01-23 22:30:00,9.3,2.7,30.17,WNW,290,0.0,0.0,74,0.00,,,0.00,Wunderground v.1.15,2013-01-24 03:30:00,
2013-01-23 22:35:00,9.2,2.9,30.17,WNW,290,0.0,0.0,75,0.00,,,0.00,Wunderground v.1.15,2013-01-24 03:35:00,
2013-01-23 22:41:00,9.0,3.0,30.17,WNW,290,0.0,0.0,76,0.00,,,0.00,Wunderground v.1.15,2013-01-24 03:41:00,
2013-01-23 22:47:00,8.9,2.9,30.17,WNW,290,0.0,0.0,76,0.00,,,0.00,Wunderground v.1.15,2013-01-24 03:47:00,
2013-01-23 22:52:00,8.8,2.8,30.17,WNW,290,0.0,0.0,76,0.00,,,0.00,Wunderground v.1.15,2013-01-24 03:52:00,
2013-01-23 22:58:00,8.7,2.7,30.17,WNW,290,0.0,0.0,76,0.00,,,0.00,Wunderground v.1.15,2013-01-24 03:58:00,
2013-01-23 23:04:00,8.5,2.5,30.17,WNW,290,0.0,0.0,76,0.00,,,0.00,Wunderground v.1.15,2013-01-24 04:04:00,
2013-01-23 23:09:00,8.4,2.7,30.17,WNW,290,0.0,0.0,77,0.00,,,0.00,Wunderground v.1.15,2013-01-24 04:09:00,
2013-01-23 23:15:00,8.3,2.3,30.17,WNW,290,0.0,0.0,76,0.00,,,0.00,Wunderground v.1.15,2013-01-24 04:15:00,
2013-01-23 23:21:00,8.1,2.4,30.17,WNW,290,0.0,0.0,77,0.00,,,0.00,Wunderground v.1.15,2013-01-24 04:21:00,
2013-01-23 23:27:00,8.0,2.6,30.17,WNW,290,0.0,0.0,78,0.00,,,0.00,Wunderground v.1.15,2013-01-24 04:27:00,
2013-01-23 23:32:00,7.9,2.5,30.17,WNW,290,0.0,0.0,78,0.00,,,0.00,Wunderground v.1.15,2013-01-24 04:32:00,
2013-01-23 23:37:00,7.7,2.5,30.17,WNW,290,0.0,0.0,79,0.00,,,0.00,Wunderground v.1.15,2013-01-24 04:37:00,
2013-01-23 23:44:00,7.6,2.4,30.17,WNW,290,0.0,0.0,79,0.00,,,0.00,Wunderground v.1.15,2013-01-24 04:44:00,
2013-01-23 23:49:00,7.5,2.3,30.17,WNW,290,0.0,0.0,79,0.00,,,0.00,Wunderground v.1.15,2013-01-24 04:49:00,
2013-01-23 23:54:00,7.4,2.3,30.16,WNW,290,0.0,0.0,79,0.00,,,0.00,Wunderground v.1.15,2013-01-24 04:54:00,